Time,TemperatureF,DewpointF,PressureIn,WindDirection,WindDirectionDegrees,WindSpeedMPH,WindSpeedGustMPH,Humidity,HourlyPrecipIn,Conditions,Clouds,dailyrainin,SoftwareType,DateUTC
2013-07-18 00:01:00,75.3,73.8,30.13,East,84,0.0,0.0,95,0.00,,,1.09,Wunderground v.1.15,2013-07-18 04:01:00,
2013-07-18 00:02:00,75.3,73.8,30.13,East,85,0.0,0.0,95,0.00,,,1.09,Wunderground v.1.15,2013-07-18 04:02:00,
2013-07-18 00:03:00,75.3,73.8,30.13,East,85,0.0,0.0,95,0.00,,,1.09,Wunderground v.1.15,2013-07-18 04:03:00,
2013-07-18 00:07:00,75.3,73.8,30.13,East,86,0.0,0.0,95,0.00,,,0.00,Wunderground v.1.15,2013-07-18 04:07:00,
2013-07-18 00:12:00,75.1,73.6,30.13,East,87,0.0,0.0,95,0.00,,,0.00,Wunderground v.1.15,2013-07-18 04:12:00,
2013-07-18 00:17:00,75.1,73.6,30.12,East,86,0.0,2.0,95,0.00,,,0.00,Wunderground v.1.15,2013-07-18 04:17:00,
2013-07-18 00:23:00,74.9,73.4,30.12,SE,138,0.0,0.0,95,0.00,,,0.00,Wunderground v.1.15,2013-07-18 04:23:00,
2013-07-18 00:28:00,74.8,73.0,30.12,SE,137,0.0,0.0,94,0.00,,,0.00,Wunderground v.1.15,2013-07-18 04:28:00,
2013-07-18 00:33:00,74.8,73.0,30.12,SE,137,0.0,0.0,94,0.00,,,0.00,Wunderground v.1.15,2013-07-18 04:33:00,
2013-07-18 00:38:00,74.7,72.9,30.11,SE,137,0.0,0.0,94,0.00,,,0.00,Wunderground v.1.15,2013-07-18 04:38:00,
2013-07-18 00:44:00,74.7,72.9,30.12,SE,137,0.0,0.0,94,0.00,,,0.00,Wunderground v.1.15,2013-07-18 04:44:00,
2013-07-18 00:49:00,74.6,72.8,30.11,SE,137,0.0,0.0,94,0.00,,,0.00,Wunderground v.1.15,2013-07-18 04:49:00,
2013-07-18 00:54:00,74.5,72.7,30.11,SE,137,0.0,0.0,94,0.00,,,0.00,Wunderground v.1.15,2013-07-18 04:54:00,
2013-07-18 01:00:00,74.4,72.6,30.11,SE,137,0.0,0.0,94,0.00,,,0.00,Wunderground v.1.15,2013-07-18 05:00:00,
2013-07-18 01:06:00,74.3,72.5,30.11,SE,137,0.0,0.0,94,0.00,,,0.00,Wunderground v.1.15,2013-07-18 05:06:00,
2013-07-18 01:12:00,74.1,71.9,30.11,SE,137,0.0,0.0,93,0.00,,,0.00,Wunderground v.1.15,2013-07-18 05:12:00,
2013-07-18 01:17:00,74.0,71.8,30.11,SE,137,0.0,0.0,93,0.00,,,0.00,Wunderground v.1.15,2013-07-18 05:17:00,
2013-07-18 01:22:00,73.9,71.7,30.11,SE,137,0.0,0.0,93,0.00,,,0.00,Wunderground v.1.15,2013-07-18 05:22:00,
2013-07-18 01:27:00,73.9,71.7,30.11,SE,137,0.0,0.0,93,0.00,,,0.00,Wunderground v.1.15,2013-07-18 05:27:00,
2013-07-18 01:33:00,73.8,72.0,30.11,SE,137,0.0,0.0,94,0.00,,,0.00,Wunderground v.1.15,2013-07-18 05:33:00,
2013-07-18 01:38:00,73.8,72.0,30.11,SE,137,0.0,0.0,94,0.00,,,0.00,Wunderground v.1.15,2013-07-18 05:38:00,
2013-07-18 01:43:00,73.7,71.9,30.11,SE,137,0.0,0.0,94,0.00,,,0.00,Wunderground v.1.15,2013-07-18 05:43:00,
2013-07-18 01:48:00,73.7,71.9,30.10,SE,137,0.0,0.0,94,0.00,,,0.00,Wunderground v.1.15,2013-07-18 05:48:00,
2013-07-18 01:53:00,73.7,71.9,30.10,SE,137,0.0,0.0,94,0.00,,,0.00,Wunderground v.1.15,2013-07-18 05:53:00,
2013-07-18 01:59:00,73.6,71.8,30.10,SE,126,0.0,1.0,94,0.00,,,0.00,Wunderground v.1.15,2013-07-18 05:59:00,
2013-07-18 02:04:00,73.6,71.4,30.10,ESE,122,0.0,1.0,93,0.00,,,0.00,Wunderground v.1.15,2013-07-18 06:04:00,
2013-07-18 02:09:00,73.6,71.4,30.10,ESE,122,0.0,1.0,93,0.00,,,0.00,Wunderground v.1.15,2013-07-18 06:09:00,
2013-07-18 02:15:00,73.7,71.9,30.11,ESE,122,0.0,0.0,94,0.00,,,0.00,Wunderground v.1.15,2013-07-18 06:15:00,
2013-07-18 02:20:00,73.7,71.9,30.11,ESE,123,0.0,0.0,94,0.00,,,0.00,Wunderground v.1.15,2013-07-18 06:20:00,
2013-07-18 02:25:00,73.7,71.9,30.11,ESE,123,0.0,0.0,94,0.00,,,0.00,Wunderground v.1.15,2013-07-18 06:25:00,
2013-07-18 02:31:00,73.7,71.9,30.11,ESE,122,0.0,0.0,94,0.00,,,0.00,Wunderground v.1.15,2013-07-18 06:31:00,
2013-07-18 02:36:00,73.8,72.0,30.11,ESE,122,0.0,0.0,94,0.00,,,0.00,Wunderground v.1.15,2013-07-18 06:36:00,
2013-07-18 02:41:00,73.8,72.0,30.10,ESE,123,0.0,0.0,94,0.00,,,0.00,Wunderground v.1.15,2013-07-18 06:41:00,
2013-07-18 02:46:00,73.9,72.1,30.10,ESE,122,0.0,0.0,94,0.00,,,0.00,Wunderground v.1.15,2013-07-18 06:46:00,
2013-07-18 02:52:00,73.9,72.1,30.10,ESE,122,0.0,0.0,94,0.00,,,0.00,Wunderground v.1.15,2013-07-18 06:52:00,
2013-07-18 02:57:00,73.9,72.1,30.10,ESE,122,0.0,0.0,94,0.00,,,0.00,Wunderground v.1.15,2013-07-18 06:57:00,
2013-07-18 03:03:00,74.0,72.2,30.10,ESE,123,0.0,2.0,94,0.00,,,0.00,Wunderground v.1.15,2013-07-18 07:03:00,
2013-07-18 03:08:00,74.0,72.2,30.10,ESE,123,0.0,2.0,94,0.00,,,0.00,Wunderground v.1.15,2013-07-18 07:08:00,
2013-07-18 03:13:00,74.0,72.2,30.10,ESE,123,0.0,0.0,94,0.00,,,0.00,Wunderground v.1.15,2013-07-18 07:13:00,
2013-07-18 03:19:00,74.0,72.2,30.10,ESE,123,0.0,0.0,94,0.00,,,0.00,Wunderground v.1.15,2013-07-18 07:19:00,
2013-07-18 03:24:00,74.0,72.2,30.10,ESE,122,0.0,0.0,94,0.00,,,0.00,Wunderground v.1.15,2013-07-18 07:24:00,
2013-07-18 03:30:00,73.9,72.1,30.10,ESE,123,0.0,0.0,94,0.00,,,0.00,Wunderground v.1.15,2013-07-18 07:30:00,
2013-07-18 03:35:00,73.9,72.1,30.10,ESE,122,0.0,0.0,94,0.00,,,0.00,Wunderground v.1.15,2013-07-18 07:35:00,
2013-07-18 03:40:00,73.9,72.1,30.09,ESE,122,0.0,0.0,94,0.00,,,0.00,Wunderground v.1.15,2013-07-18 07:40:00,
2013-07-18 03:46:00,73.9,72.1,30.09,ESE,122,0.0,0.0,94,0.00,,,0.00,Wunderground v.1.15,2013-07-18 07:46:00,
2013-07-18 03:51:00,74.0,72.2,30.09,ESE,122,0.0,0.0,94,0.00,,,0.00,Wunderground v.1.15,2013-07-18 07:51:00,
2013-07-18 03:56:00,74.0,72.2,30.09,ESE,123,0.0,0.0,94,0.00,,,0.00,Wunderground v.1.15,2013-07-18 07:56:00,
2013-07-18 04:01:00,74.0,72.2,30.09,ESE,122,0.0,0.0,94,0.00,,,0.00,Wunderground v.1.15,2013-07-18 08:01:00,
2013-07-18 04:07:00,74.1,72.3,30.09,ESE,123,0.0,0.0,94,0.00,,,0.00,Wunderground v.1.15,2013-07-18 08:07:00,
2013-07-18 04:12:00,74.1,72.3,30.09,ESE,122,0.0,0.0,94,0.00,,,0.00,Wunderground v.1.15,2013-07-18 08:12:00,
2013-07-18 04:18:00,74.1,72.3,30.09,ESE,122,0.0,0.0,94,0.00,,,0.00,Wunderground v.1.15,2013-07-18 08:18:00,
2013-07-18 04:23:00,74.2,72.4,30.08,ESE,122,0.0,0.0,94,0.00,,,0.00,Wunderground v.1.15,2013-07-18 08:23:00,
2013-07-18 04:28:00,74.2,72.4,30.08,ESE,123,0.0,0.0,94,0.00,,,0.00,Wunderground v.1.15,2013-07-18 08:28:00,
2013-07-18 04:33:00,74.2,72.4,30.08,ESE,123,0.0,0.0,94,0.00,,,0.00,Wunderground v.1.15,2013-07-18 08:33:00,
2013-07-18 04:39:00,74.2,72.4,30.09,ESE,121,0.0,0.0,94,0.00,,,0.00,Wunderground v.1.15,2013-07-18 08:39:00,
2013-07-18 04:44:00,74.2,72.4,30.08,ESE,121,0.0,0.0,94,0.00,,,0.00,Wunderground v.1.15,2013-07-18 08:44:00,
2013-07-18 04:49:00,74.2,72.4,30.08,ESE,121,0.0,0.0,94,0.00,,,0.00,Wunderground v.1.15,2013-07-18 08:49:00,
2013-07-18 04:55:00,74.2,72.4,30.08,ESE,121,0.0,0.0,94,0.00,,,0.00,Wunderground v.1.15,2013-07-18 08:55:00,
2013-07-18 05:00:00,74.2,72.4,30.09,ESE,121,0.0,0.0,94,0.00,,,0.00,Wunderground v.1.15,2013-07-18 09:00:00,
2013-07-18 05:05:00,74.2,72.4,30.09,ESE,121,0.0,1.0,94,0.00,,,0.00,Wunderground v.1.15,2013-07-18 09:05:00,
2013-07-18 05:11:00,74.3,72.5,30.09,ESE,121,0.0,1.0,94,0.00,,,0.00,Wunderground v.1.15,2013-07-18 09:11:00,
2013-07-18 05:16:00,74.3,72.5,30.09,ESE,121,0.0,0.0,94,0.00,,,0.00,Wunderground v.1.15,2013-07-18 09:16:00,
2013-07-18 05:22:00,74.3,72.5,30.09,ESE,121,0.0,0.0,94,0.00,,,0.00,Wunderground v.1.15,2013-07-18 09:22:00,
2013-07-18 05:28:00,74.3,72.5,30.09,ESE,121,0.0,0.0,94,0.00,,,0.00,Wunderground v.1.15,2013-07-18 09:28:00,
2013-07-18 05:33:00,74.3,72.5,30.09,ESE,121,0.0,0.0,94,0.00,,,0.00,Wunderground v.1.15,2013-07-18 09:33:00,
2013-07-18 05:38:00,74.3,72.5,30.09,ESE,121,0.0,0.0,94,0.00,,,0.00,Wunderground v.1.15,2013-07-18 09:38:00,
2013-07-18 05:44:00,74.3,72.5,30.09,ESE,121,0.0,0.0,94,0.00,,,0.00,Wunderground v.1.15,2013-07-18 09:44:00,
2013-07-18 05:49:00,74.3,72.5,30.09,ESE,121,0.0,0.0,94,0.00,,,0.00,Wunderground v.1.15,2013-07-18 09:49:00,
2013-07-18 05:54:00,74.3,72.5,30.08,ESE,121,0.0,0.0,94,0.00,,,0.00,Wunderground v.1.15,2013-07-18 09:54:00,
2013-07-18 05:59:00,74.3,72.5,30.08,ESE,121,0.0,0.0,94,0.00,,,0.00,Wunderground v.1.15,2013-07-18 09:59:00,
2013-07-18 06:05:00,74.3,72.5,30.09,ESE,121,0.0,0.0,94,0.00,,,0.00,Wunderground v.1.15,2013-07-18 10:05:00,
2013-07-18 06:10:00,74.3,72.5,30.09,ESE,121,0.0,0.0,94,0.00,,,0.00,Wunderground v.1.15,2013-07-18 10:10:00,
2013-07-18 06:15:00,74.2,72.4,30.09,ESE,121,0.0,0.0,94,0.00,,,0.00,Wunderground v.1.15,2013-07-18 10:15:00,
2013-07-18 06:21:00,74.2,72.4,30.09,ESE,121,0.0,0.0,94,0.00,,,0.00,Wunderground v.1.15,2013-07-18 10:21:00,
2013-07-18 06:26:00,74.2,72.4,30.09,ESE,121,0.0,0.0,94,0.00,,,0.00,Wunderground v.1.15,2013-07-18 10:26:00,
2013-07-18 06:31:00,74.1,72.3,30.10,ESE,121,0.0,0.0,94,0.00,,,0.00,Wunderground v.1.15,2013-07-18 10:31:00,
2013-07-18 06:37:00,74.1,72.3,30.10,ESE,121,0.0,0.0,94,0.00,,,0.00,Wunderground v.1.15,2013-07-18 10:37:00,
2013-07-18 06:42:00,74.1,72.6,30.10,ESE,121,0.0,0.0,95,0.00,,,0.00,Wunderground v.1.15,2013-07-18 10:42:00,
2013-07-18 06:47:00,74.1,72.6,30.10,ESE,121,0.0,0.0,95,0.00,,,0.00,Wunderground v.1.15,2013-07-18 10:47:00,
2013-07-18 06:53:00,74.1,72.6,30.10,ESE,121,0.0,0.0,95,0.00,,,0.00,Wunderground v.1.15,2013-07-18 10:53:00,
2013-07-18 06:58:00,74.1,72.6,30.10,ESE,121,0.0,0.0,95,0.00,,,0.00,Wunderground v.1.15,2013-07-18 10:58:00,
2013-07-18 07:03:00,74.2,72.7,30.10,ESE,121,0.0,0.0,95,0.00,,,0.00,Wunderground v.1.15,2013-07-18 11:03:00,
2013-07-18 07:09:00,74.2,72.7,30.11,ESE,121,0.0,0.0,95,0.00,,,0.00,Wunderground v.1.15,2013-07-18 11:09:00,
2013-07-18 07:14:00,74.3,72.8,30.11,ESE,121,0.0,0.0,95,0.00,,,0.00,Wunderground v.1.15,2013-07-18 11:14:00,
2013-07-18 07:19:00,74.4,72.9,30.11,ESE,121,0.0,0.0,95,0.00,,,0.01,Wunderground v.1.15,2013-07-18 11:19:00,
2013-07-18 07:25:00,74.5,73.0,30.11,ESE,121,0.0,0.0,95,0.00,,,0.01,Wunderground v.1.15,2013-07-18 11:25:00,
2013-07-18 07:30:00,74.6,73.1,30.11,ESE,120,0.0,0.0,95,0.00,,,0.01,Wunderground v.1.15,2013-07-18 11:30:00,
2013-07-18 07:35:00,74.7,73.2,30.11,ESE,119,0.0,0.0,95,0.00,,,0.01,Wunderground v.1.15,2013-07-18 11:35:00,
2013-07-18 07:41:00,74.8,73.3,30.11,ESE,115,0.0,0.0,95,0.00,,,0.01,Wunderground v.1.15,2013-07-18 11:41:00,
2013-07-18 07:46:00,74.9,73.1,30.11,ESE,109,0.0,1.0,94,0.00,,,0.01,Wunderground v.1.15,2013-07-18 11:46:00,
2013-07-18 07:51:00,75.0,73.2,30.11,ESE,109,0.0,2.0,94,0.00,,,0.01,Wunderground v.1.15,2013-07-18 11:51:00,
2013-07-18 07:57:00,75.2,73.4,30.11,ESE,106,0.0,2.0,94,0.00,,,0.01,Wunderground v.1.15,2013-07-18 11:57:00,
2013-07-18 08:02:00,75.4,73.6,30.11,SE,131,0.0,0.0,94,0.00,,,0.01,Wunderground v.1.15,2013-07-18 12:02:00,
2013-07-18 08:07:00,75.5,73.3,30.11,SE,139,1.0,1.0,93,0.00,,,0.01,Wunderground v.1.15,2013-07-18 12:07:00,
2013-07-18 08:13:00,75.7,73.5,30.11,SE,136,1.0,1.0,93,0.00,,,0.01,Wunderground v.1.15,2013-07-18 12:13:00,
2013-07-18 08:18:00,75.9,73.7,30.11,SE,136,0.0,1.0,93,0.00,,,0.01,Wunderground v.1.15,2013-07-18 12:18:00,
2013-07-18 08:23:00,76.1,73.6,30.11,SE,130,0.0,0.0,92,0.00,,,0.01,Wunderground v.1.15,2013-07-18 12:23:00,
2013-07-18 08:28:00,76.3,73.8,30.11,SE,130,0.0,0.0,92,0.00,,,0.01,Wunderground v.1.15,2013-07-18 12:28:00,
2013-07-18 08:34:00,76.5,74.0,30.11,SE,130,0.0,0.0,92,0.00,,,0.01,Wunderground v.1.15,2013-07-18 12:34:00,
2013-07-18 08:39:00,76.6,74.1,30.11,SE,128,0.0,2.0,92,0.00,,,0.01,Wunderground v.1.15,2013-07-18 12:39:00,
2013-07-18 08:45:00,76.7,73.9,30.12,SE,124,1.0,2.0,91,0.00,,,0.01,Wunderground v.1.15,2013-07-18 12:45:00,
2013-07-18 08:50:00,76.8,74.0,30.12,ESE,114,0.0,2.0,91,0.00,,,0.01,Wunderground v.1.15,2013-07-18 12:50:00,
2013-07-18 08:55:00,76.9,73.7,30.12,ESE,112,0.0,1.0,90,0.00,,,0.01,Wunderground v.1.15,2013-07-18 12:55:00,
2013-07-18 09:01:00,77.2,74.0,30.12,ESE,114,0.0,2.0,90,0.00,,,0.01,Wunderground v.1.15,2013-07-18 13:01:00,
2013-07-18 09:06:00,77.4,74.2,30.12,ESE,114,0.0,4.0,90,0.00,,,0.01,Wunderground v.1.15,2013-07-18 13:06:00,
2013-07-18 09:12:00,77.8,74.6,30.12,ESE,114,0.0,0.0,90,0.00,,,0.01,Wunderground v.1.15,2013-07-18 13:12:00,
2013-07-18 09:17:00,78.3,74.8,30.12,NE,43,1.0,3.0,89,0.00,,,0.01,Wunderground v.1.15,2013-07-18 13:17:00,
2013-07-18 09:22:00,78.9,75.0,30.12,ENE,76,1.0,1.0,88,0.00,,,0.01,Wunderground v.1.15,2013-07-18 13:22:00,
2013-07-18 09:28:00,79.6,75.4,30.12,East,82,0.0,1.0,87,0.00,,,0.01,Wunderground v.1.15,2013-07-18 13:28:00,
2013-07-18 09:33:00,80.0,75.1,30.12,SSE,165,0.0,0.0,85,0.00,,,0.01,Wunderground v.1.15,2013-07-18 13:33:00,
2013-07-18 09:38:00,80.2,74.6,30.12,SE,145,1.0,4.0,83,0.00,,,0.01,Wunderground v.1.15,2013-07-18 13:38:00,
2013-07-18 09:43:00,80.1,74.5,30.13,SE,129,1.0,1.0,83,0.00,,,0.01,Wunderground v.1.15,2013-07-18 13:43:00,
2013-07-18 09:49:00,80.5,74.9,30.12,East,101,1.0,1.0,83,0.00,,,0.01,Wunderground v.1.15,2013-07-18 13:49:00,
2013-07-18 09:54:00,80.9,74.9,30.12,North,9,1.0,3.0,82,0.00,,,0.01,Wunderground v.1.15,2013-07-18 13:54:00,
2013-07-18 10:00:00,81.3,74.9,30.13,East,82,1.0,3.0,81,0.00,,,0.01,Wunderground v.1.15,2013-07-18 14:00:00,
2013-07-18 10:05:00,81.7,74.9,30.13,East,95,2.0,6.0,80,0.00,,,0.01,Wunderground v.1.15,2013-07-18 14:05:00,
2013-07-18 10:11:00,82.1,74.9,30.13,East,94,2.0,6.0,79,0.00,,,0.01,Wunderground v.1.15,2013-07-18 14:11:00,
2013-07-18 10:16:00,82.2,74.7,30.13,East,92,2.0,5.0,78,0.00,,,0.01,Wunderground v.1.15,2013-07-18 14:16:00,
2013-07-18 10:22:00,82.3,75.1,30.13,ENE,69,2.0,2.0,79,0.00,,,0.01,Wunderground v.1.15,2013-07-18 14:22:00,
2013-07-18 10:27:00,82.6,75.0,30.13,ENE,75,1.0,2.0,78,0.00,,,0.01,Wunderground v.1.15,2013-07-18 14:27:00,
2013-07-18 10:33:00,83.1,75.5,30.13,East,91,1.0,1.0,78,0.00,,,0.01,Wunderground v.1.15,2013-07-18 14:33:00,
2013-07-18 10:39:00,83.5,75.5,30.13,SE,132,0.0,4.0,77,0.00,,,0.01,Wunderground v.1.15,2013-07-18 14:39:00,
2013-07-18 10:45:00,83.3,74.9,30.13,SE,143,0.0,5.0,76,0.00,,,0.01,Wunderground v.1.15,2013-07-18 14:45:00,
2013-07-18 10:50:00,83.4,75.4,30.12,SE,140,0.0,5.0,77,0.00,,,0.01,Wunderground v.1.15,2013-07-18 14:50:00,
2013-07-18 10:55:00,83.4,75.0,30.13,ESE,104,1.0,3.0,76,0.00,,,0.01,Wunderground v.1.15,2013-07-18 14:55:00,
2013-07-18 11:00:00,83.0,74.6,30.12,SE,137,2.0,3.0,76,0.00,,,0.01,Wunderground v.1.15,2013-07-18 15:00:00,
2013-07-18 11:06:00,83.0,75.0,30.12,ENE,77,1.0,6.0,77,0.00,,,0.01,Wunderground v.1.15,2013-07-18 15:06:00,
2013-07-18 11:11:00,83.2,75.6,30.12,East,80,0.0,6.0,78,0.00,,,0.01,Wunderground v.1.15,2013-07-18 15:11:00,
2013-07-18 11:17:00,83.2,75.2,30.13,South,171,0.0,2.0,77,0.00,,,0.01,Wunderground v.1.15,2013-07-18 15:17:00,
2013-07-18 11:22:00,83.3,74.9,30.13,ESE,105,0.0,1.0,76,0.00,,,0.01,Wunderground v.1.15,2013-07-18 15:22:00,
2013-07-18 11:27:00,83.4,75.4,30.13,ESE,117,0.0,3.0,77,0.00,,,0.01,Wunderground v.1.15,2013-07-18 15:27:00,
2013-07-18 11:32:00,83.4,75.4,30.12,ESE,117,1.0,1.0,77,0.00,,,0.01,Wunderground v.1.15,2013-07-18 15:32:00,
2013-07-18 11:38:00,83.8,75.4,30.13,ESE,107,0.0,3.0,76,0.00,,,0.01,Wunderground v.1.15,2013-07-18 15:38:00,
2013-07-18 11:43:00,83.9,75.5,30.13,SE,126,0.0,1.0,76,0.00,,,0.01,Wunderground v.1.15,2013-07-18 15:43:00,
2013-07-18 11:48:00,84.3,75.5,30.13,ESE,115,0.0,1.0,75,0.00,,,0.01,Wunderground v.1.15,2013-07-18 15:48:00,
2013-07-18 11:54:00,84.7,75.1,30.13,ENE,78,1.0,3.0,73,0.00,,,0.01,Wunderground v.1.15,2013-07-18 15:54:00,
2013-07-18 11:59:00,85.2,75.1,30.13,SSE,165,1.0,3.0,72,0.00,,,0.01,Wunderground v.1.15,2013-07-18 15:59:00,
2013-07-18 12:04:00,85.5,75.9,30.13,SE,128,1.0,7.0,73,0.00,,,0.01,Wunderground v.1.15,2013-07-18 16:04:00,
2013-07-18 12:10:00,85.7,75.6,30.12,SSW,195,1.0,7.0,72,0.00,,,0.01,Wunderground v.1.15,2013-07-18 16:10:00,
2013-07-18 12:15:00,85.8,75.3,30.12,South,190,1.0,6.0,71,0.00,,,0.01,Wunderground v.1.15,2013-07-18 16:15:00,
2013-07-18 12:20:00,85.5,75.0,30.12,SE,141,2.0,6.0,71,0.00,,,0.01,Wunderground v.1.15,2013-07-18 16:20:00,
2013-07-18 12:26:00,85.6,75.1,30.12,ESE,109,1.0,3.0,71,0.00,,,0.01,Wunderground v.1.15,2013-07-18 16:26:00,
2013-07-18 12:31:00,85.5,74.6,30.12,South,178,1.0,4.0,70,0.00,,,0.01,Wunderground v.1.15,2013-07-18 16:31:00,
2013-07-18 12:36:00,85.4,74.9,30.12,SE,145,1.0,6.0,71,0.00,,,0.01,Wunderground v.1.15,2013-07-18 16:36:00,
2013-07-18 12:42:00,85.3,74.0,30.12,South,184,1.0,2.0,69,0.00,,,0.01,Wunderground v.1.15,2013-07-18 16:42:00,
2013-07-18 12:47:00,85.2,74.3,30.12,East,98,1.0,2.0,70,0.00,,,0.01,Wunderground v.1.15,2013-07-18 16:47:00,
2013-07-18 12:52:00,85.2,74.7,30.12,SSE,167,1.0,3.0,71,0.00,,,0.01,Wunderground v.1.15,2013-07-18 16:52:00,
2013-07-18 12:58:00,84.8,74.3,30.12,South,181,2.0,9.0,71,0.00,,,0.01,Wunderground v.1.15,2013-07-18 16:58:00,
2013-07-18 13:03:00,84.8,73.9,30.12,South,187,1.0,4.0,70,0.00,,,0.01,Wunderground v.1.15,2013-07-18 17:03:00,
2013-07-18 13:08:00,85.0,75.0,30.12,East,94,1.0,5.0,72,0.00,,,0.01,Wunderground v.1.15,2013-07-18 17:08:00,
2013-07-18 13:14:00,85.5,75.0,30.12,SSE,152,0.0,1.0,71,0.00,,,0.01,Wunderground v.1.15,2013-07-18 17:14:00,
2013-07-18 13:19:00,85.7,74.8,30.12,SE,130,0.0,1.0,70,0.00,,,0.01,Wunderground v.1.15,2013-07-18 17:19:00,
2013-07-18 13:24:00,85.8,74.4,30.11,ESE,113,0.0,2.0,69,0.00,,,0.01,Wunderground v.1.15,2013-07-18 17:24:00,
2013-07-18 13:30:00,85.6,74.7,30.11,ESE,117,1.0,3.0,70,0.00,,,0.01,Wunderground v.1.15,2013-07-18 17:30:00,
2013-07-18 13:35:00,85.7,73.9,30.11,ESE,119,1.0,1.0,68,0.00,,,0.01,Wunderground v.1.15,2013-07-18 17:35:00,
2013-07-18 13:40:00,85.8,74.4,30.11,SE,125,0.0,1.0,69,0.00,,,0.01,Wunderground v.1.15,2013-07-18 17:40:00,
2013-07-18 13:46:00,85.9,74.1,30.10,SSE,156,0.0,0.0,68,0.00,,,0.01,Wunderground v.1.15,2013-07-18 17:46:00,
2013-07-18 13:51:00,85.7,73.9,30.10,SE,129,1.0,5.0,68,0.00,,,0.01,Wunderground v.1.15,2013-07-18 17:51:00,
2013-07-18 13:56:00,85.5,73.7,30.10,SE,136,1.0,1.0,68,0.00,,,0.01,Wunderground v.1.15,2013-07-18 17:56:00,
2013-07-18 14:01:00,85.7,74.8,30.10,East,86,0.0,1.0,70,0.00,,,0.01,Wunderground v.1.15,2013-07-18 18:01:00,
2013-07-18 14:07:00,85.9,74.1,30.10,East,79,0.0,9.0,68,0.00,,,0.01,Wunderground v.1.15,2013-07-18 18:07:00,
2013-07-18 14:13:00,86.0,73.8,30.09,SSE,156,0.0,0.0,67,0.00,,,0.01,Wunderground v.1.15,2013-07-18 18:13:00,
2013-07-18 14:19:00,86.1,74.3,30.09,SSW,198,0.0,2.0,68,0.00,,,0.01,Wunderground v.1.15,2013-07-18 18:19:00,
2013-07-18 14:24:00,85.9,74.1,30.09,SSE,164,1.0,2.0,68,0.00,,,0.01,Wunderground v.1.15,2013-07-18 18:24:00,
2013-07-18 14:30:00,85.9,74.1,30.10,SSE,164,1.0,2.0,68,0.00,,,0.01,Wunderground v.1.15,2013-07-18 18:30:00,
2013-07-18 14:35:00,86.4,75.0,30.09,SSE,164,0.0,0.0,69,0.00,,,0.01,Wunderground v.1.15,2013-07-18 18:35:00,
2013-07-18 14:41:00,86.8,74.5,30.09,SE,136,0.0,1.0,67,0.00,,,0.01,Wunderground v.1.15,2013-07-18 18:41:00,
2013-07-18 14:46:00,87.0,74.3,30.09,ESE,105,0.0,0.0,66,0.00,,,0.01,Wunderground v.1.15,2013-07-18 18:46:00,
2013-07-18 14:52:00,87.6,74.4,30.09,East,95,0.0,0.0,65,0.00,,,0.01,Wunderground v.1.15,2013-07-18 18:52:00,
2013-07-18 14:57:00,87.9,74.7,30.08,NNW,346,0.0,0.0,65,0.00,,,0.01,Wunderground v.1.15,2013-07-18 18:57:00,
2013-07-18 15:03:00,88.4,74.2,30.08,South,188,0.0,1.0,63,0.00,,,0.01,Wunderground v.1.15,2013-07-18 19:03:00,
2013-07-18 15:09:00,88.8,74.6,30.08,South,191,0.0,4.0,63,0.00,,,0.01,Wunderground v.1.15,2013-07-18 19:09:00,
2013-07-18 15:14:00,88.8,75.0,30.08,South,187,1.0,1.0,64,0.00,,,0.01,Wunderground v.1.15,2013-07-18 19:14:00,
2013-07-18 15:20:00,89.0,74.3,30.07,East,90,0.0,1.0,62,0.00,,,0.01,Wunderground v.1.15,2013-07-18 19:20:00,
2013-07-18 15:26:00,89.5,74.3,30.07,ESE,113,0.0,0.0,61,0.00,,,0.01,Wunderground v.1.15,2013-07-18 19:26:00,
2013-07-18 15:31:00,89.8,75.0,30.07,ENE,69,0.0,0.0,62,0.00,,,0.01,Wunderground v.1.15,2013-07-18 19:31:00,
2013-07-18 15:36:00,90.0,74.2,30.06,East,82,0.0,0.0,60,0.00,,,0.01,Wunderground v.1.15,2013-07-18 19:36:00,
2013-07-18 15:42:00,89.9,74.2,30.06,East,84,0.0,0.0,60,0.00,,,0.01,Wunderground v.1.15,2013-07-18 19:42:00,
2013-07-18 15:47:00,89.9,75.1,30.06,North,5,0.0,2.0,62,0.00,,,0.01,Wunderground v.1.15,2013-07-18 19:47:00,
2013-07-18 15:52:00,90.5,74.7,30.06,ESE,115,0.0,0.0,60,0.00,,,0.01,Wunderground v.1.15,2013-07-18 19:52:00,
2013-07-18 15:58:00,90.7,75.4,30.06,ESE,118,0.0,0.0,61,0.00,,,0.01,Wunderground v.1.15,2013-07-18 19:58:00,
2013-07-18 16:03:00,90.5,74.7,30.06,ESE,111,0.0,1.0,60,0.00,,,0.01,Wunderground v.1.15,2013-07-18 20:03:00,
2013-07-18 16:09:00,89.9,74.2,30.06,SE,134,0.0,1.0,60,0.00,,,0.01,Wunderground v.1.15,2013-07-18 20:09:00,
2013-07-18 16:14:00,89.4,74.2,30.07,SE,135,0.0,2.0,61,0.00,,,0.01,Wunderground v.1.15,2013-07-18 20:14:00,
2013-07-18 16:19:00,85.9,73.2,30.07,SSE,156,4.0,12.0,66,0.00,,,0.01,Wunderground v.1.15,2013-07-18 20:19:00,
2013-07-18 16:24:00,83.0,72.6,30.07,NE,52,6.0,6.0,71,0.00,,,0.01,Wunderground v.1.15,2013-07-18 20:24:00,
2013-07-18 16:30:00,81.7,72.6,30.07,SSE,148,5.0,11.0,74,0.00,,,0.01,Wunderground v.1.15,2013-07-18 20:30:00,
2013-07-18 16:35:00,80.5,72.2,30.07,SSE,153,6.0,13.0,76,0.00,,,0.01,Wunderground v.1.15,2013-07-18 20:35:00,
2013-07-18 16:41:00,79.6,72.9,30.07,SSE,153,5.0,13.0,80,0.00,,,0.01,Wunderground v.1.15,2013-07-18 20:41:00,
2013-07-18 16:46:00,78.5,72.5,30.08,SSW,200,2.0,7.0,82,0.00,,,0.01,Wunderground v.1.15,2013-07-18 20:46:00,
2013-07-18 16:52:00,77.3,72.4,30.08,South,173,1.0,1.0,85,0.00,,,0.01,Wunderground v.1.15,2013-07-18 20:52:00,
2013-07-18 16:57:00,76.7,72.2,30.08,SW,225,0.0,1.0,86,0.00,,,0.01,Wunderground v.1.15,2013-07-18 20:57:00,
2013-07-18 17:02:00,76.2,72.0,30.07,South,191,0.0,3.0,87,0.00,,,0.01,Wunderground v.1.15,2013-07-18 21:02:00,
2013-07-18 17:08:00,75.9,72.1,30.07,South,182,0.0,3.0,88,0.00,,,0.02,Wunderground v.1.15,2013-07-18 21:08:00,
2013-07-18 17:13:00,75.7,71.9,30.07,South,179,0.0,0.0,88,0.00,,,0.02,Wunderground v.1.15,2013-07-18 21:13:00,
2013-07-18 17:18:00,75.5,71.7,30.07,South,179,0.0,0.0,88,0.00,,,0.02,Wunderground v.1.15,2013-07-18 21:18:00,
2013-07-18 17:24:00,75.4,72.3,30.07,South,179,0.0,0.0,90,0.19,,,0.04,Wunderground v.1.15,2013-07-18 21:24:00,
2013-07-18 17:29:00,75.5,72.4,30.07,South,180,0.0,0.0,90,0.10,,,0.04,Wunderground v.1.15,2013-07-18 21:29:00,
2013-07-18 17:35:00,75.5,72.4,30.07,South,180,0.0,0.0,90,0.08,,,0.05,Wunderground v.1.15,2013-07-18 21:35:00,
2013-07-18 17:40:00,75.5,72.7,30.07,South,179,0.0,0.0,91,0.15,,,0.06,Wunderground v.1.15,2013-07-18 21:40:00,
2013-07-18 17:46:00,75.5,72.7,30.06,South,179,0.0,0.0,91,0.19,,,0.08,Wunderground v.1.15,2013-07-18 21:46:00,
2013-07-18 17:52:00,75.6,72.8,30.06,South,180,0.0,0.0,91,0.20,,,0.10,Wunderground v.1.15,2013-07-18 21:52:00,
2013-07-18 17:57:00,75.6,72.8,30.06,South,180,0.0,0.0,91,0.08,,,0.11,Wunderground v.1.15,2013-07-18 21:57:00,
2013-07-18 18:02:00,75.5,72.7,30.07,South,180,0.0,2.0,91,0.08,,,0.11,Wunderground v.1.15,2013-07-18 22:02:00,
2013-07-18 18:08:00,75.6,73.1,30.06,South,179,0.0,2.0,92,0.05,,,0.11,Wunderground v.1.15,2013-07-18 22:08:00,
2013-07-18 18:13:00,75.8,73.3,30.06,South,179,0.0,0.0,92,0.04,,,0.11,Wunderground v.1.15,2013-07-18 22:13:00,
2013-07-18 18:18:00,75.9,73.7,30.07,South,180,0.0,0.0,93,0.00,,,0.11,Wunderground v.1.15,2013-07-18 22:18:00,
2013-07-18 18:24:00,76.1,73.9,30.07,South,175,0.0,0.0,93,0.00,,,0.11,Wunderground v.1.15,2013-07-18 22:24:00,
2013-07-18 18:29:00,76.2,74.0,30.07,South,175,0.0,0.0,93,0.00,,,0.11,Wunderground v.1.15,2013-07-18 22:29:00,
2013-07-18 18:35:00,76.2,74.0,30.07,South,174,0.0,0.0,93,0.00,,,0.11,Wunderground v.1.15,2013-07-18 22:35:00,
2013-07-18 18:41:00,76.2,74.0,30.07,South,173,0.0,0.0,93,0.00,,,0.11,Wunderground v.1.15,2013-07-18 22:41:00,
2013-07-18 18:47:00,75.9,73.4,30.07,South,180,0.0,0.0,92,0.00,,,0.12,Wunderground v.1.15,2013-07-18 22:47:00,
2013-07-18 18:52:00,75.7,73.2,30.07,South,173,0.0,0.0,92,0.00,,,0.12,Wunderground v.1.15,2013-07-18 22:52:00,
2013-07-18 18:57:00,75.6,73.1,30.07,South,169,0.0,0.0,92,0.00,,,0.12,Wunderground v.1.15,2013-07-18 22:57:00,
2013-07-18 19:02:00,75.5,73.0,30.07,South,188,0.0,0.0,92,0.00,,,0.12,Wunderground v.1.15,2013-07-18 23:02:00,
2013-07-18 19:08:00,75.4,73.2,30.07,South,180,0.0,0.0,93,0.00,,,0.12,Wunderground v.1.15,2013-07-18 23:08:00,
2013-07-18 19:13:00,75.4,73.2,30.07,South,188,0.0,0.0,93,0.00,,,0.12,Wunderground v.1.15,2013-07-18 23:13:00,
2013-07-18 19:19:00,75.3,73.1,30.07,South,186,0.0,0.0,93,0.00,,,0.12,Wunderground v.1.15,2013-07-18 23:19:00,
2013-07-18 19:24:00,75.3,73.1,30.07,South,186,0.0,0.0,93,0.00,,,0.12,Wunderground v.1.15,2013-07-18 23:24:00,
2013-07-18 19:29:00,75.3,73.1,30.07,South,186,0.0,0.0,93,0.00,,,0.12,Wunderground v.1.15,2013-07-18 23:29:00,
2013-07-18 19:35:00,75.3,73.1,30.07,South,186,0.0,0.0,93,0.00,,,0.13,Wunderground v.1.15,2013-07-18 23:35:00,
2013-07-18 19:40:00,75.2,73.0,30.07,South,186,0.0,0.0,93,0.00,,,0.13,Wunderground v.1.15,2013-07-18 23:40:00,
2013-07-18 19:45:00,75.2,73.0,30.07,South,186,0.0,0.0,93,0.00,,,0.13,Wunderground v.1.15,2013-07-18 23:45:00,
2013-07-18 19:51:00,75.1,72.9,30.07,South,186,0.0,0.0,93,0.04,,,0.14,Wunderground v.1.15,2013-07-18 23:51:00,
2013-07-18 19:56:00,75.1,72.9,30.07,South,186,0.0,0.0,93,0.04,,,0.14,Wunderground v.1.15,2013-07-18 23:56:00,
2013-07-18 20:01:00,75.1,73.3,30.07,South,186,0.0,1.0,94,0.04,,,0.14,Wunderground v.1.15,2013-07-19 00:01:00,
2013-07-18 20:07:00,75.0,73.2,30.07,South,186,0.0,1.0,94,0.04,,,0.15,Wunderground v.1.15,2013-07-19 00:07:00,
2013-07-18 20:12:00,75.0,73.2,30.07,South,186,0.0,0.0,94,0.04,,,0.15,Wunderground v.1.15,2013-07-19 00:12:00,
2013-07-18 20:17:00,75.0,73.2,30.07,South,186,0.0,0.0,94,0.04,,,0.15,Wunderground v.1.15,2013-07-19 00:17:00,
2013-07-18 20:22:00,75.0,73.2,30.07,South,186,0.0,0.0,94,0.00,,,0.15,Wunderground v.1.15,2013-07-19 00:22:00,
2013-07-18 20:28:00,75.1,73.3,30.08,South,186,0.0,0.0,94,0.00,,,0.15,Wunderground v.1.15,2013-07-19 00:28:00,
2013-07-18 20:33:00,75.0,73.2,30.08,South,186,0.0,0.0,94,0.00,,,0.15,Wunderground v.1.15,2013-07-19 00:33:00,
2013-07-18 20:39:00,75.0,73.2,30.08,South,186,0.0,0.0,94,0.00,,,0.15,Wunderground v.1.15,2013-07-19 00:39:00,
2013-07-18 20:44:00,74.9,73.1,30.08,South,186,0.0,0.0,94,0.00,,,0.15,Wunderground v.1.15,2013-07-19 00:44:00,
2013-07-18 20:49:00,75.0,73.2,30.08,South,186,0.0,0.0,94,0.00,,,0.15,Wunderground v.1.15,2013-07-19 00:49:00,
2013-07-18 20:55:00,74.9,73.1,30.08,South,186,0.0,0.0,94,0.00,,,0.15,Wunderground v.1.15,2013-07-19 00:55:00,
2013-07-18 21:00:00,74.9,73.1,30.08,South,186,0.0,0.0,94,0.00,,,0.15,Wunderground v.1.15,2013-07-19 01:00:00,
2013-07-18 21:05:00,74.9,73.1,30.08,South,186,0.0,0.0,94,0.00,,,0.15,Wunderground v.1.15,2013-07-19 01:05:00,
2013-07-18 21:11:00,74.9,73.1,30.08,South,186,0.0,0.0,94,0.00,,,0.15,Wunderground v.1.15,2013-07-19 01:11:00,
2013-07-18 21:17:00,74.9,73.1,30.08,South,186,0.0,0.0,94,0.00,,,0.15,Wunderground v.1.15,2013-07-19 01:17:00,
2013-07-18 21:22:00,74.9,73.1,30.09,South,186,0.0,0.0,94,0.00,,,0.15,Wunderground v.1.15,2013-07-19 01:22:00,
2013-07-18 21:28:00,74.9,73.4,30.09,South,186,0.0,0.0,95,0.00,,,0.15,Wunderground v.1.15,2013-07-19 01:28:00,
2013-07-18 21:33:00,75.0,73.5,30.09,South,186,0.0,0.0,95,0.00,,,0.15,Wunderground v.1.15,2013-07-19 01:33:00,
2013-07-18 21:38:00,74.9,73.4,30.09,South,186,0.0,0.0,95,0.00,,,0.15,Wunderground v.1.15,2013-07-19 01:38:00,
2013-07-18 21:44:00,75.0,73.5,30.09,South,186,0.0,0.0,95,0.00,,,0.15,Wunderground v.1.15,2013-07-19 01:44:00,
2013-07-18 21:49:00,75.0,73.5,30.09,South,186,0.0,0.0,95,0.00,,,0.15,Wunderground v.1.15,2013-07-19 01:49:00,
2013-07-18 21:54:00,75.0,73.5,30.09,South,186,0.0,0.0,95,0.00,,,0.15,Wunderground v.1.15,2013-07-19 01:54:00,
2013-07-18 22:00:00,74.9,73.4,30.09,South,186,0.0,0.0,95,0.00,,,0.15,Wunderground v.1.15,2013-07-19 02:00:00,
2013-07-18 22:05:00,74.9,73.4,30.09,South,186,0.0,0.0,95,0.00,,,0.15,Wunderground v.1.15,2013-07-19 02:05:00,
2013-07-18 22:10:00,74.8,73.3,30.09,South,186,0.0,0.0,95,0.00,,,0.15,Wunderground v.1.15,2013-07-19 02:10:00,
2013-07-18 22:16:00,74.8,73.3,30.10,South,186,0.0,0.0,95,0.00,,,0.15,Wunderground v.1.15,2013-07-19 02:16:00,
2013-07-18 22:21:00,74.8,73.3,30.10,South,186,0.0,0.0,95,0.00,,,0.15,Wunderground v.1.15,2013-07-19 02:21:00,
2013-07-18 22:27:00,74.7,73.2,30.10,South,186,0.0,0.0,95,0.00,,,0.15,Wunderground v.1.15,2013-07-19 02:27:00,
2013-07-18 22:33:00,74.7,73.2,30.10,South,186,0.0,0.0,95,0.00,,,0.15,Wunderground v.1.15,2013-07-19 02:33:00,
2013-07-18 22:38:00,74.7,73.2,30.10,South,186,0.0,0.0,95,0.00,,,0.15,Wunderground v.1.15,2013-07-19 02:38:00,
2013-07-18 22:44:00,74.7,73.2,30.10,South,186,0.0,0.0,95,0.00,,,0.15,Wunderground v.1.15,2013-07-19 02:44:00,
2013-07-18 22:49:00,74.7,73.2,30.10,South,186,0.0,0.0,95,0.00,,,0.15,Wunderground v.1.15,2013-07-19 02:49:00,
2013-07-18 22:54:00,74.7,73.2,30.10,South,186,0.0,0.0,95,0.00,,,0.15,Wunderground v.1.15,2013-07-19 02:54:00,
2013-07-18 22:59:00,74.6,73.1,30.10,South,186,0.0,0.0,95,0.00,,,0.15,Wunderground v.1.15,2013-07-19 02:59:00,
2013-07-18 23:04:00,74.6,73.1,30.10,South,186,0.0,0.0,95,0.00,,,0.15,Wunderground v.1.15,2013-07-19 03:04:00,
2013-07-18 23:10:00,74.5,73.0,30.11,South,186,0.0,0.0,95,0.00,,,0.15,Wunderground v.1.15,2013-07-19 03:10:00,
2013-07-18 23:16:00,74.4,72.9,30.10,South,186,0.0,0.0,95,0.00,,,0.15,Wunderground v.1.15,2013-07-19 03:16:00,
2013-07-18 23:21:00,74.4,72.9,30.11,South,186,0.0,0.0,95,0.00,,,0.15,Wunderground v.1.15,2013-07-19 03:21:00,
2013-07-18 23:26:00,74.4,72.9,30.11,South,186,0.0,0.0,95,0.00,,,0.15,Wunderground v.1.15,2013-07-19 03:26:00,
2013-07-18 23:32:00,74.3,72.8,30.11,South,186,0.0,0.0,95,0.00,,,0.15,Wunderground v.1.15,2013-07-19 03:32:00,
2013-07-18 23:37:00,74.3,72.8,30.11,South,186,0.0,0.0,95,0.00,,,0.15,Wunderground v.1.15,2013-07-19 03:37:00,
2013-07-18 23:42:00,74.3,72.8,30.11,South,186,0.0,0.0,95,0.00,,,0.15,Wunderground v.1.15,2013-07-19 03:42:00,
2013-07-18 23:48:00,74.2,72.7,30.11,South,186,0.0,0.0,95,0.00,,,0.15,Wunderground v.1.15,2013-07-19 03:48:00,
2013-07-18 23:53:00,74.2,72.7,30.11,South,186,0.0,0.0,95,0.00,,,0.15,Wunderground v.1.15,2013-07-19 03:53:00,
2013-07-18 23:58:00,74.2,72.7,30.11,South,186,0.0,0.0,95,0.00,,,0.15,Wunderground v.1.15,2013-07-19 03:58:00,